星链-6296 (STARLINK-6296 )

导读 | 星芒AI

STARLINK-6296 是 SpaceX Starlink 卫星互联网项目中的一颗低轨卫星,属于第62批发射任务部署的星群之一。该卫星运行在约550公里高度的近地轨道,旨在为全球用户提供高速、低延迟的互联网服务。Starlink 项目致力于构建由数千颗卫星组成的星座,以覆盖偏远和网络基础设施薄弱的地区。STARLINK-6296 采用先进推进和通信技术,支持全球用户接入互联网,推动数字包容性发展。

基本信息
目录编号:
56773
目录名称:
STARLINK-6296
国际标识:
2023-078G
轨道中心:
EARTH
卫星名称:
星链-6296
卫星全名:
星链-6296 (STARLINK-6296 )
卫星状态:
在轨 (已飞行935 天)
发射日期:
2023-05-31 UTC
国别 :
美国 (US)
星等 :
--
轨道信息
数据来源 国际轨道数据 AOE轨道数据
星历时间 2025-12-21T20:33:55+0800
6小时前
查看轨道信息
2025-12-21T16:00:00+0800
11小时前
查看轨道信息
半长轴 6950.191km 6950.194km
偏心率 0.000328 0.0003449
轨道倾角 69.999° 70.001°
近地点辐角 270.812° 268.998°
升交点赤经 141.710° 142.187°
平近点角 89.266° 145.311°
近地点 569.774km 569.659km
远地点 574.334km 574.455km
周期 96.107分钟 96.107分钟
每日圈数 14.983309 14.983297
详细信息
固有亮度:
5
最大亮度:
2.5
卫星平台:
Starlink v1.5
覆盖范围:
全球
运营商:
太空探索技术公司
运营商所在国:
美国
制造商(研发单位):
太空探索技术公司
制造商所在国:
美国
使用方式:
暂无
卫星简介
星链(Starlink)计划是由太空探索技术公司(SpaceX)提出的一个巨型低轨卫星互联网星座项目,计划在2019年至2024年间在太空搭建由约1.2万颗卫星组成的“星链”网络,其中1584颗将部署在地球上空550千米处的近地轨道,并从2020年开始工作。该卫星仍在工作。
2D轨道图
3D轨道图
轨道高度分析图
轨道倾角分析图
轨道综合分析图
查看轨道综合分析图